"Datum/tijd (MET/MEZT)";"model verwacht debiet (m3/s)";"verwacht debiet rws (m3/s)";"debiet meting (m3/s)";"Model verwachting waterstand (cm/nap)";"verwachting RWS";"waterstand [cm]"
2024-03-21 18:00;2924.32;2894;2924.32;1022;1021;1022
2024-03-21 18:10;2924.32;2894;2944.45;1022;1021;1023
2024-03-21 18:20;2924.32;2894;2924.32;1022;1021;1022
2024-03-21 18:30;2924.32;2894;2944.45;1022;1021;1023
2024-03-21 18:40;2924.32;2894;2924.32;1022;1021;1022
2024-03-21 18:50;2924.32;2894;2944.45;1022;1021;1023
2024-03-21 19:00;2924.32;2894;2924.32;1022;1021;1022
2024-03-21 19:10;2927.68;2894;2932.07;1022;1020;1023
2024-03-21 19:20;2931.03;2894;2924.32;1022;1020;1022
2024-03-21 19:30;2934.39;2894;2911.97;1022;1020;1022
2024-03-21 19:40;2937.74;2894;2932.07;1023;1020;1023
2024-03-21 19:50;2941.1;2894;2911.97;1023;1020;1022
2024-03-21 20:00;2944.45;2894;2944.45;1023;1020;1023
2024-03-21 20:10;2939.04;2894;2911.97;1023;1020;1022
2024-03-21 20:20;2933.62;2894;2932.07;1023;1020;1023
2024-03-21 20:30;2928.21;2894;2932.07;1022;1020;1023
2024-03-21 20:40;2922.8;2894;2899.62;1022;1020;1022
2024-03-21 20:50;2917.38;2894;2911.97;1022;1020;1022
2024-03-21 21:00;2911.97;2894;2911.97;1022;1020;1022
2024-03-21 21:10;2915.32;2894;2932.07;1022;1020;1023
2024-03-21 21:20;2918.67;2894;2932.07;1022;1020;1023
2024-03-21 21:30;2922.02;2894;2932.07;1022;1020;1023
2024-03-21 21:40;2925.37;2894;2932.07;1023;1020;1023
2024-03-21 21:50;2928.72;2894;2932.07;1023;1020;1023
2024-03-21 22:00;2932.07;2894;2932.07;1023;1020;1023
2024-03-21 22:10;2935.43;2894;2939.83;1023;1020;1024
2024-03-21 22:20;2938.79;2894;2952.24;1023;1020;1024
2024-03-21 22:30;2942.16;2894;2939.83;1023;1020;1024
2024-03-21 22:40;2945.52;2894;2952.24;1024;1020;1024
2024-03-21 22:50;2948.88;2894;2939.83;1024;1020;1024
2024-03-21 23:00;2952.24;2894;2952.24;1024;1020;1024
2024-03-21 23:10;2953.54;2894;2939.83;1024;1020;1024
2024-03-21 23:20;2954.84;2894;2952.24;1024;1020;1024
2024-03-21 23:30;2956.15;2894;2952.24;1024;1020;1024
2024-03-21 23:40;2957.45;2894;2939.83;1025;1020;1024
2024-03-21 23:50;2958.75;2894;2952.24;1025;1020;1024
2024-03-22 00:00;2960.05;2895;2960.05;1025;1020;1025
2024-03-22 00:10;2958.75;2895;2972.5;1025;1020;1025
2024-03-22 00:20;2957.45;2895;2960.05;1025;1020;1025
2024-03-22 00:30;2956.16;2895;2960.05;1024;1020;1025
2024-03-22 00:40;2954.86;2895;2952.26;1024;1020;1024
2024-03-22 00:50;2953.56;2895;2972.5;1024;1020;1025
2024-03-22 01:00;2952.26;2895;2952.26;1024;1020;1024
2024-03-22 01:10;2953.56;2895;2939.85;1024;1020;1024
2024-03-22 01:20;2954.86;2895;2939.85;1024;1020;1024
2024-03-22 01:30;2956.16;2895;2939.85;1024;1020;1024
2024-03-22 01:40;2957.45;2895;2939.85;1025;1020;1024
2024-03-22 01:50;2958.75;2895;2939.85;1025;1020;1024
2024-03-22 02:00;2960.05;2895;2960.05;1025;1020;1025
2024-03-22 02:10;2957.98;2895;2947.61;1025;1020;1025
2024-03-22 02:20;2955.9;2895;2927.44;1025;1020;1024
2024-03-22 02:30;2953.83;2895;2927.44;1025;1020;1024
2024-03-22 02:40;2951.76;2895;2927.44;1025;1020;1024
2024-03-22 02:50;2949.68;2895;2947.61;1025;1020;1025
2024-03-22 03:00;2947.61;2895;2947.61;1025;1020;1025
2024-03-22 03:10;2945.54;2895;2947.61;1025;1020;1025
2024-03-22 03:20;2943.46;2895;2947.61;1025;1020;1025
2024-03-22 03:30;2941.39;2895;2947.61;1025;1020;1025
2024-03-22 03:40;2939.32;2895;2927.44;1025;1020;1024
2024-03-22 03:50;2937.24;2895;2947.61;1025;1020;1025
2024-03-22 04:00;2935.17;2895;2935.17;1025;1020;1025
2024-03-22 04:10;2940.58;2895;2935.17;1025;1020;1025
2024-03-22 04:20;2945.99;2895;2935.17;1025;1020;1025
2024-03-22 04:30;2951.4;2895;2935.17;1026;1020;1025
2024-03-22 04:40;2956.82;2895;2947.61;1026;1020;1025
2024-03-22 04:50;2962.23;2895;2955.17;1026;1020;1026
2024-03-22 05:00;2967.64;2895;2967.64;1026;1020;1026
2024-03-22 05:10;2965.56;2895;2967.64;1026;1020;1026
2024-03-22 05:20;2963.48;2895;2947.61;1026;1020;1025
2024-03-22 05:30;2961.4;2895;2967.64;1026;1020;1026
2024-03-22 05:40;2959.33;2895;2967.64;1026;1020;1026
2024-03-22 05:50;2957.25;2895;2967.64;1026;1020;1026
2024-03-22 06:00;2955.17;2895;2955.17;1026;1020;1026
2024-03-22 06:10;2958.48;2895;2955.17;1026;1020;1026
2024-03-22 06:20;2961.78;2895;2967.64;1026;1020;1026
2024-03-22 06:30;2965.09;2895;2987.52;1026;1020;1027
2024-03-22 06:40;2968.4;2896;2987.52;1027;1020;1027
2024-03-22 06:50;2971.7;2896;2975.01;1027;1020;1027
2024-03-22 07:00;2975.01;2975;2975.01;1027;1027;1027
2024-03-22 07:10;2971.7;2975;2994.94;1027;1027;1028
2024-03-22 07:20;2968.4;2975;2935.17;1027;1027;1025
2024-03-22 07:30;2965.09;2976;2975.01;1026;1027;1027
2024-03-22 07:40;2961.78;2976;2967.64;1026;1027;1026
2024-03-22 07:50;2958.48;2976;2955.17;1026;1027;1026
2024-03-22 08:00;2955.17;2976;2955.17;1026;1027;1026
2024-03-22 08:10;2956.39;2977;2975.01;1026;1027;1027
2024-03-22 08:20;2957.62;2977;2975.01;1026;1027;1027
2024-03-22 08:30;2958.84;2977;2975.01;1026;1028;1027
2024-03-22 08:40;2960.06;2977;2975.01;1027;1028;1027
2024-03-22 08:50;2961.29;2978;2962.51;1027;1028;1027
2024-03-22 09:00;2962.51;2978;2962.51;1027;1028;1027
2024-03-22 09:10;2962.51;2978;2962.51;1027;1028;1027
2024-03-22 09:20;2962.51;2978;2975.01;1027;1028;1027
2024-03-22 09:30;2962.51;2978;2982.4;1027;1028;1028
2024-03-22 09:40;2962.51;2979;2982.4;1027;1028;1028
2024-03-22 09:50;2962.51;2979;2982.4;1027;1028;1028
2024-03-22 10:00;2962.51;2979;2962.51;1027;1028;1027
2024-03-22 10:10;2967.06;2979;2982.4;1027;1028;1028
2024-03-22 10:20;2971.61;2980;2982.4;1028;1028;1028
2024-03-22 10:30;2976.16;2980;2969.86;1028;1028;1028
2024-03-22 10:40;2980.7;2980;2969.86;1028;1028;1028
2024-03-22 10:50;2985.25;2980;2969.86;1029;1028;1028
2024-03-22 11:00;2989.8;2980;2989.8;1029;1028;1029
2024-03-22 11:10;2991.9;2981;2977.22;1029;1028;1029
2024-03-22 11:20;2993.99;2981;3014.96;1029;1028;1029
2024-03-22 11:30;2996.09;2981;2989.8;1029;1029;1029
2024-03-22 11:40;2998.19;2981;3002.38;1029;1029;1029
2024-03-22 11:50;3000.28;2982;3022.45;1029;1029;1030
2024-03-22 12:00;3002.38;2982;3002.38;1029;1029;1029
2024-03-22 12:10;3003.62;2982;3009.83;1029;1029;1030
2024-03-22 12:20;3004.86;2982;2989.8;1029;1029;1029
2024-03-22 12:30;3006.11;2983;3009.83;1030;1029;1030
2024-03-22 12:40;3007.35;2983;3009.83;1030;1029;1030
2024-03-22 12:50;3008.59;2983;3029.96;1030;1029;1031
2024-03-22 13:00;3009.83;2983;3009.83;1030;1029;1030
2024-03-22 13:10;3013.19;2983;3009.83;1030;1029;1030
2024-03-22 13:20;3016.54;2984;3009.83;1030;1029;1030
2024-03-22 13:30;3019.9;2984;3017.3;1031;1029;1031
2024-03-22 13:40;3023.25;2984;3017.3;1031;1029;1031
2024-03-22 13:50;3026.61;2984;2997.21;1031;1029;1030
2024-03-22 14:00;3029.96;2985;3029.96;1031;1029;1031
2024-03-22 14:10;3025.74;2985;2997.21;1031;1029;1030
2024-03-22 14:20;3021.52;2985;2997.21;1031;1029;1030
2024-03-22 14:30;3017.3;2985;2997.21;1031;1030;1030
2024-03-22 14:40;3013.08;2985;2997.21;1031;1030;1030
2024-03-22 14:50;3008.86;2986;3017.3;1031;1030;1031
2024-03-22 15:00;3004.64;2986;3004.64;1031;1030;1031
2024-03-22 15:10;3004.64;2986;3004.64;1031;1030;1031
2024-03-22 15:20;3004.64;2986;3004.64;1031;1030;1031
2024-03-22 15:30;3004.64;2987;3004.64;1031;1030;1031
2024-03-22 15:40;3004.64;2987;3024.78;1031;1030;1032
2024-03-22 15:50;3004.64;2987;2971.97;1031;1030;1030
2024-03-22 16:00;3004.64;2987;3004.64;1031;1030;1031
2024-03-22 16:10;3002.53;2988;2991.98;1031;1030;1031
2024-03-22 16:20;3000.42;2988;3004.64;1031;1030;1031
2024-03-22 16:30;2998.31;2988;2991.98;1031;1030;1031
2024-03-22 16:40;2996.2;2988;2991.98;1031;1030;1031
2024-03-22 16:50;2994.09;2988;2979.32;1031;1030;1031
2024-03-22 17:00;2991.98;2989;2991.98;1031;1030;1031
2024-03-22 17:10;2989.87;2989;2991.98;1031;1030;1031
2024-03-22 17:20;2987.76;2989;2991.98;1031;1030;1031
2024-03-22 17:30;2985.65;2989;2999.38;1031;1031;1032
2024-03-22 17:40;2983.54;2990;2999.38;1031;1031;1032
2024-03-22 17:50;2981.43;2990;2991.98;1031;1031;1031
2024-03-22 18:00;2979.32;2990;2979.32;1031;1031;1031
2024-03-22 18:10;2979.32;2990;2991.98;1031;1031;1031
2024-03-22 18:20;2979.32;2990;3012.08;1031;1031;1032
2024-03-22 18:30;2979.32;2991;3012.08;1031;1031;1032
2024-03-22 18:40;2979.32;2991;3012.08;1031;1031;1032
2024-03-22 18:50;2979.32;2991;2999.38;1031;1031;1032
2024-03-22 19:00;2979.32;2991;2979.32;1031;1031;1031
2024-03-22 19:10;2979.32;2992;2979.32;1031;1031;1031
2024-03-22 19:20;2979.32;2992;2999.38;1031;1031;1032
2024-03-22 19:30;2979.32;2992;2979.32;1031;1031;1031
2024-03-22 19:40;2979.32;2992;2986.68;1031;1031;1032
2024-03-22 19:50;2979.32;2993;2991.98;1031;1031;1031
2024-03-22 20:00;2979.32;2993;2979.32;1031;1031;1031
2024-03-22 20:10;2982.66;2993;2999.38;1031;1031;1032
2024-03-22 20:20;2986.01;2993;2999.38;1031;1031;1032
2024-03-22 20:30;2989.35;2993;2999.38;1031;1032;1032
2024-03-22 20:40;2992.69;2994;2999.38;1032;1032;1032
2024-03-22 20:50;2996.04;2994;2999.38;1032;1032;1032
2024-03-22 21:00;2999.38;2994;2999.38;1032;1032;1032
2024-03-22 21:10;3002.74;2994;2999.38;1032;1032;1032
2024-03-22 21:20;3006.1;2995;3019.54;1032;1032;1033
2024-03-22 21:30;3009.46;2995;3006.79;1032;1032;1033
2024-03-22 21:40;3012.82;2995;3006.79;1033;1032;1033
2024-03-22 21:50;3016.18;2995;3019.54;1033;1032;1033
2024-03-22 22:00;3019.54;2995;3019.54;1033;1032;1033
2024-03-22 22:10;3019.54;2996;2999.38;1033;1032;1032
2024-03-22 22:20;3019.54;2996;2986.68;1033;1032;1032
2024-03-22 22:30;3019.54;2996;3006.79;1033;1032;1033
2024-03-22 22:40;3019.54;2996;2986.68;1033;1032;1032
2024-03-22 22:50;3019.54;2997;2986.68;1033;1032;1032
2024-03-22 23:00;3019.54;2997;3019.54;1033;1032;1033
2024-03-22 23:10;3019.54;2997;2999.38;1033;1032;1032
2024-03-22 23:20;3019.54;2997;2986.68;1033;1032;1032
2024-03-22 23:30;3019.55;2998;3019.54;1033;1033;1033
2024-03-22 23:40;3019.55;2998;3006.79;1033;1033;1033
2024-03-22 23:50;3019.55;2998;2999.38;1033;1033;1032
2024-03-23 00:00;3019.55;2998;3019.55;1033;1033;1033
2024-03-23 00:10;3017.43;2998;2986.69;1033;1033;1032
2024-03-23 00:20;3015.3;2999;3006.8;1033;1033;1033
2024-03-23 00:30;3013.18;2999;2986.69;1033;1033;1032
2024-03-23 00:40;3011.05;2999;3006.8;1033;1033;1033
2024-03-23 00:50;3008.93;2999;3006.8;1033;1033;1033
2024-03-23 01:00;3006.8;3000;3006.8;1033;1033;1033
2024-03-23 01:10;3004.68;3000;3006.8;1033;1033;1033
2024-03-23 01:20;3002.55;3000;2973.99;1033;1033;1032
2024-03-23 01:30;3000.43;3000;2994.06;1033;1033;1033
2024-03-23 01:40;2998.31;3001;2994.06;1033;1033;1033
2024-03-23 01:50;2996.18;3001;2994.06;1033;1033;1033
2024-03-23 02:00;2994.06;3001;2994.06;1033;1033;1033
2024-03-23 02:10;2990.72;3001;3006.8;1033;1033;1033
2024-03-23 02:20;2987.37;3001;3006.8;1033;1033;1033
2024-03-23 02:30;2984.03;3002;2994.06;1032;1034;1033
2024-03-23 02:40;2980.68;3002;3027.02;1032;1034;1034
2024-03-23 02:50;2977.34;3002;3027.02;1032;1034;1034
2024-03-23 03:00;2973.99;3002;2973.99;1032;1034;1032
2024-03-23 03:10;2977.34;3003;3006.8;1032;1034;1033
2024-03-23 03:20;2980.68;3003;3006.8;1032;1034;1033
2024-03-23 03:30;2984.03;3003;2973.99;1032;1034;1032
2024-03-23 03:40;2987.37;3003;2994.06;1033;1034;1033
2024-03-23 03:50;2990.72;3003;2986.69;1033;1034;1032
2024-03-23 04:00;2994.06;3004;2994.06;1033;1034;1033
2024-03-23 04:10;2997.42;3004;3006.8;1033;1034;1033
2024-03-23 04:20;3000.78;3004;2994.06;1033;1034;1033
2024-03-23 04:30;3004.15;3004;3006.8;1034;1034;1033
2024-03-23 04:40;3007.51;3005;2994.06;1034;1034;1033
2024-03-23 04:50;3010.87;3005;2994.06;1034;1034;1033
2024-03-23 05:00;3014.23;3005;3014.23;1034;1034;1034
2024-03-23 05:10;3010.87;3005;2994.06;1034;1034;1033
2024-03-23 05:20;3007.51;3006;3027.02;1034;1034;1034
2024-03-23 05:30;3004.15;3006;3014.23;1034;1035;1034
2024-03-23 05:40;3000.78;3006;3034.5;1033;1035;1035
2024-03-23 05:50;2997.42;3006;2973.99;1033;1035;1032
2024-03-23 06:00;2994.06;3006;2994.06;1033;1035;1033
2024-03-23 06:10;2996.18;3007;2994.06;1033;1035;1033
2024-03-23 06:20;2998.31;3007;2994.06;1033;1035;1033
2024-03-23 06:30;3000.43;3007;2994.06;1033;1035;1033
2024-03-23 06:40;3002.55;3007;2981.31;1033;1035;1033
2024-03-23 06:50;3004.68;3008;2981.31;1033;1035;1033
2024-03-23 07:00;3006.8;3007;3006.8;1033;1033;1033
2024-03-23 07:10;3004.68;3006;2994.06;1033;1033;1033
2024-03-23 07:20;3002.55;3006;2994.06;1033;1033;1033
2024-03-23 07:30;3000.43;3005;3006.8;1033;1033;1033
2024-03-23 07:40;2998.31;3005;2994.06;1033;1033;1033
2024-03-23 07:50;2996.18;3004;3027.02;1033;1033;1034
2024-03-23 08:00;2994.06;3004;2994.06;1033;1033;1033
2024-03-23 08:10;2995.29;3003;2994.06;1033;1033;1033
2024-03-23 08:20;2996.52;3003;3014.23;1033;1033;1034
2024-03-23 08:30;2997.75;3002;3014.23;1034;1033;1034
2024-03-23 08:40;2998.98;3002;3014.23;1034;1032;1034
2024-03-23 08:50;3000.21;3001;3014.23;1034;1032;1034
2024-03-23 09:00;3001.44;3001;3001.44;1034;1032;1034
2024-03-23 09:10;3006.95;3000;3014.23;1034;1032;1034
2024-03-23 09:20;3012.46;3000;3021.66;1034;1032;1035
2024-03-23 09:30;3017.97;2999;3001.44;1034;1032;1034
2024-03-23 09:40;3023.48;2999;3008.83;1035;1032;1035
2024-03-23 09:50;3028.99;2998;3047.34;1035;1032;1035
2024-03-23 10:00;3034.5;2998;3034.5;1035;1032;1035
2024-03-23 10:10;3031.12;2997;3034.5;1035;1032;1035
2024-03-23 10:20;3027.74;2997;3034.5;1035;1032;1035
2024-03-23 10:30;3024.37;2996;3014.23;1034;1032;1034
2024-03-23 10:40;3020.99;2996;3014.23;1034;1032;1034
2024-03-23 10:50;3017.61;2995;3014.23;1034;1032;1034
2024-03-23 11:00;3014.23;2995;3014.23;1034;1032;1034
2024-03-23 11:10;3014.23;2994;3034.5;1034;1032;1035
2024-03-23 11:20;3014.23;2994;3014.23;1034;1032;1034
2024-03-23 11:30;3014.23;2993;3014.23;1034;1032;1034
2024-03-23 11:40;3014.23;2993;3034.5;1034;1031;1035
2024-03-23 11:50;3014.23;2992;3001.44;1034;1031;1034
2024-03-23 12:00;3014.23;2992;3014.23;1034;1031;1034
2024-03-23 12:10;3015.47;2991;3014.23;1034;1031;1034
2024-03-23 12:20;3016.71;2991;3021.66;1034;1031;1035
2024-03-23 12:30;3017.94;2990;3021.66;1034;1031;1035
2024-03-23 12:40;3019.18;2990;3021.66;1035;1031;1035
2024-03-23 12:50;3020.42;2989;3021.66;1035;1031;1035
2024-03-23 13:00;3021.66;2989;3021.66;1035;1031;1035
2024-03-23 13:10;3022.9;2988;3042;1035;1031;1036
2024-03-23 13:20;3024.14;2988;3008.83;1035;1031;1035
2024-03-23 13:30;3025.39;2987;3042;1035;1031;1036
2024-03-23 13:40;3026.63;2987;3029.11;1036;1031;1036
2024-03-23 13:50;3027.87;2986;3008.83;1036;1031;1035
2024-03-23 14:00;3029.11;2986;3029.11;1036;1031;1036
2024-03-23 14:10;3031.26;2985;3029.11;1036;1031;1036
2024-03-23 14:20;3033.41;2985;3029.11;1036;1031;1036
2024-03-23 14:30;3035.56;2984;3042;1036;1031;1036
2024-03-23 14:40;3037.7;2984;3042;1036;1030;1036
2024-03-23 14:50;3039.85;2983;3062.44;1036;1030;1037
2024-03-23 15:00;3042;2983;3042;1036;1030;1036
2024-03-23 15:10;3042;2982;3049.51;1036;1030;1037
2024-03-23 15:20;3042;2982;3021.66;1036;1030;1035
2024-03-23 15:30;3042;2981;3042;1036;1030;1036
2024-03-23 15:40;3042;2981;3029.11;1036;1030;1036
2024-03-23 15:50;3042;2980;3042;1036;1030;1036
2024-03-23 16:00;3042;2980;3042;1036;1030;1036
2024-03-23 16:10;3033.11;2979;3042;1036;1030;1036
2024-03-23 16:20;3024.22;2979;3029.11;1035;1030;1036
2024-03-23 16:30;3015.33;2978;3029.11;1035;1030;1036
2024-03-23 16:40;3006.43;2978;3029.11;1035;1030;1036
2024-03-23 16:50;2997.54;2977;3029.11;1034;1030;1036
2024-03-23 17:00;2988.65;2977;2988.65;1034;1030;1034
2024-03-23 17:10;2993.25;2976;3016.23;1034;1030;1036
2024-03-23 17:20;2997.84;2975;3008.83;1035;1030;1035
2024-03-23 17:30;3002.44;2975;2995.99;1035;1030;1035
2024-03-23 17:40;3007.04;2974;3016.23;1035;1029;1036
2024-03-23 17:50;3011.63;2974;3029.11;1036;1029;1036
2024-03-23 18:00;3016.23;2973;3016.23;1036;1029;1036
2024-03-23 18:10;3016.23;2973;3016.23;1036;1029;1036
2024-03-23 18:20;3016.23;2972;3016.23;1036;1029;1036
2024-03-23 18:30;3016.23;2972;3016.23;1036;1029;1036
2024-03-23 18:40;3016.23;2971;3016.23;1036;1029;1036
2024-03-23 18:50;3016.23;2971;3003.35;1036;1029;1036
2024-03-23 19:00;3016.23;2970;3016.23;1036;1029;1036
2024-03-23 19:10;3016.23;2970;3003.35;1036;1029;1036
2024-03-23 19:20;3016.23;2969;3029.11;1036;1029;1036
2024-03-23 19:30;3016.23;2969;3016.23;1036;1029;1036
2024-03-23 19:40;3016.23;2968;3036.58;1036;1029;1037
2024-03-23 19:50;3016.23;2968;2995.99;1036;1029;1035
2024-03-23 20:00;3016.23;2967;3016.23;1036;1029;1036
2024-03-23 20:10;3017.14;2967;3016.23;1036;1029;1036
2024-03-23 20:20;3018.04;2966;3016.23;1036;1029;1036
2024-03-23 20:30;3018.94;2966;3016.23;1035;1029;1036
2024-03-23 20:40;3019.85;2965;2995.99;1035;1028;1035
2024-03-23 20:50;3020.76;2965;3016.23;1035;1028;1036
2024-03-23 21:00;3021.66;2964;3021.66;1035;1028;1035
2024-03-23 21:10;3020.76;2964;2995.99;1035;1028;1035
2024-03-23 21:20;3019.85;2963;3008.83;1035;1028;1035
2024-03-23 21:30;3018.94;2963;3008.83;1035;1028;1035
2024-03-23 21:40;3018.04;2962;2995.99;1036;1028;1035
2024-03-23 21:50;3017.14;2962;2995.99;1036;1028;1035
2024-03-23 22:00;3016.23;2961;3016.23;1036;1028;1036
2024-03-23 22:10;3016.23;2961;2995.99;1036;1028;1035
2024-03-23 22:20;3016.23;2960;2995.99;1036;1028;1035
2024-03-23 22:30;3016.23;2960;3016.23;1036;1028;1036
2024-03-23 22:40;3016.23;2959;3016.23;1036;1028;1036
2024-03-23 22:50;3016.23;2959;2995.99;1036;1028;1035
2024-03-23 23:00;3016.23;2958;3016.23;1036;1028;1036
2024-03-23 23:10;3012.86;2958;3016.23;1036;1028;1036
2024-03-23 23:20;3009.49;2957;3016.23;1036;1028;1036
2024-03-23 23:30;3006.12;2957;2995.99;1035;1028;1035
2024-03-23 23:40;3002.74;2956;2983.15;1035;1027;1035
2024-03-23 23:50;2999.37;2956;3008.83;1035;1027;1035
2024-03-24 00:00;2996;2955;2996;1035;1027;1035
2024-03-24 00:10;2994.78;2955;2996;1035;1027;1035
2024-03-24 00:20;2993.55;2954;2996;1035;1027;1035
2024-03-24 00:30;2992.33;2954;2996;1034;1027;1035
2024-03-24 00:40;2991.11;2953;3008.84;1034;1027;1035
2024-03-24 00:50;2989.88;2953;2996;1034;1027;1035
2024-03-24 01:00;2988.66;2952;2988.66;1034;1027;1034
2024-03-24 01:10;2986.53;2952;2988.66;1034;1027;1034
2024-03-24 01:20;2984.4;2951;3008.84;1034;1027;1035
2024-03-24 01:30;2982.27;2951;2988.66;1034;1027;1034
2024-03-24 01:40;2980.13;2950;2988.66;1034;1027;1034
2024-03-24 01:50;2978;2950;3008.84;1034;1027;1035
2024-03-24 02:00;2975.87;2949;2975.87;1034;1027;1034
2024-03-24 02:10;2975.87;2949;2988.66;1034;1027;1034
2024-03-24 02:20;2975.87;2948;2988.66;1034;1027;1034
2024-03-24 02:30;2975.87;2948;2975.87;1034;1027;1034
2024-03-24 02:40;2975.87;2947;2996;1034;1026;1035
2024-03-24 02:50;2975.87;2947;2988.66;1034;1026;1034
2024-03-24 03:00;2975.87;2946;2975.87;1034;1026;1034
2024-03-24 03:10;2981.37;2946;2996;1034;1026;1035
2024-03-24 03:20;2986.86;2945;2996;1034;1026;1035
2024-03-24 03:30;2992.36;2945;2988.66;1034;1026;1034
2024-03-24 03:40;2997.85;2944;2988.66;1035;1026;1034
2024-03-24 03:50;3003.35;2944;3008.84;1035;1026;1035
2024-03-24 04:00;3008.84;2943;3008.84;1035;1026;1035
2024-03-24 04:10;3007.61;2943;2948.6;1035;1026;1032
2024-03-24 04:20;3006.38;2942;2988.66;1035;1026;1034
2024-03-24 04:30;3005.15;2942;2988.66;1034;1026;1034
2024-03-24 04:40;3003.91;2941;2968.58;1034;1026;1033
2024-03-24 04:50;3002.68;2941;2988.66;1034;1026;1034
2024-03-24 05:00;3001.45;2940;3001.45;1034;1026;1034
2024-03-24 05:10;2998.1;2940;3001.45;1034;1026;1034
2024-03-24 05:20;2994.74;2939;2968.58;1034;1026;1033
2024-03-24 05:30;2991.39;2939;2981.33;1034;1025;1033
2024-03-24 05:40;2988.04;2938;3001.45;1033;1025;1034
2024-03-24 05:50;2984.68;2938;2988.66;1033;1025;1034
2024-03-24 06:00;2981.33;2937;2981.33;1033;1025;1033
2024-03-24 06:10;2981.33;2937;2981.33;1033;1025;1033
2024-03-24 06:20;2981.33;2936;2981.33;1033;1025;1033
2024-03-24 06:30;2981.33;2936;2981.33;1033;1025;1033
2024-03-24 06:40;2981.33;2935;2968.58;1033;1025;1033
2024-03-24 06:50;2981.33;2935;2981.33;1033;1025;1033
2024-03-24 07:00;2981.33;2981;2981.33;1033;1033;1033
2024-03-24 07:10;2975.88;2980;2988.66;1033;1033;1034
2024-03-24 07:20;2970.42;2980;2988.66;1033;1033;1034
2024-03-24 07:30;2964.97;2979;2961.3;1032;1033;1032
2024-03-24 07:40;2959.51;2978;2981.33;1032;1033;1033
2024-03-24 07:50;2954.06;2977;2968.58;1032;1032;1033
2024-03-24 08:00;2948.6;2976;2948.6;1032;1032;1032
2024-03-24 08:10;2950.72;2975;2986.7;1032;1032;1032
2024-03-24 08:20;2952.83;2975;2961.3;1032;1032;1032
2024-03-24 08:30;2954.95;2974;2961.3;1032;1032;1032
2024-03-24 08:40;2957.07;2973;2994.07;1032;1032;1033
2024-03-24 08:50;2959.18;2972;2961.3;1032;1032;1032
2024-03-24 09:00;2961.3;2971;2961.3;1032;1032;1032
2024-03-24 09:10;2966.76;2970;2981.33;1032;1031;1033
2024-03-24 09:20;2972.22;2970;2974;1032;1031;1032
2024-03-24 09:30;2977.69;2969;2974;1032;1031;1032
2024-03-24 09:40;2983.15;2968;2961.3;1033;1031;1032
2024-03-24 09:50;2988.61;2967;2981.33;1033;1031;1033
2024-03-24 10:00;2994.07;2966;2994.07;1033;1031;1033
2024-03-24 10:10;2990.73;2965;2994.07;1033;1031;1033
2024-03-24 10:20;2987.38;2965;2994.07;1033;1031;1033
2024-03-24 10:30;2984.04;2964;3014.24;1032;1030;1034
2024-03-24 10:40;2980.69;2963;2994.07;1032;1030;1033
2024-03-24 10:50;2977.35;2962;2974;1032;1030;1032
2024-03-24 11:00;2974;2961;2974;1032;1030;1032
2024-03-24 11:10;2976.12;2960;2961.3;1032;1030;1032
2024-03-24 11:20;2978.23;2960;2961.3;1032;1030;1032
2024-03-24 11:30;2980.35;2959;2986.7;1032;1030;1032
2024-03-24 11:40;2982.47;2958;2974;1032;1030;1032
2024-03-24 11:50;2984.58;2957;2954.03;1032;1029;1031
2024-03-24 12:00;2986.7;2956;2986.7;1032;1029;1032
2024-03-24 12:10;2983.37;2955;2986.7;1032;1029;1032
2024-03-24 12:20;2980.03;2955;2986.7;1032;1029;1032
2024-03-24 12:30;2976.69;2954;2966.69;1031;1029;1031
2024-03-24 12:40;2973.36;2953;2974;1031;1029;1032
2024-03-24 12:50;2970.03;2952;2986.7;1031;1029;1032
2024-03-24 13:00;2966.69;2951;2966.69;1031;1029;1031
2024-03-24 13:10;2964.58;2950;2974;1031;1028;1032
2024-03-24 13:20;2962.47;2950;2986.7;1031;1028;1032
2024-03-24 13:30;2960.36;2949;2966.69;1031;1028;1031
2024-03-24 13:40;2958.25;2948;2986.7;1031;1028;1032
2024-03-24 13:50;2956.14;2947;2974;1031;1028;1032
2024-03-24 14:00;2954.03;2946;2954.03;1031;1028;1031
2024-03-24 14:10;2956.14;2945;2954.03;1031;1028;1031
2024-03-24 14:20;2958.25;2945;2954.03;1031;1028;1031
2024-03-24 14:30;2960.36;2944;2961.3;1031;1027;1032
2024-03-24 14:40;2962.47;2943;2974;1031;1027;1032
2024-03-24 14:50;2964.58;2942;2946.76;1031;1027;1030
2024-03-24 15:00;2966.69;2941;2966.69;1031;1027;1031
2024-03-24 15:10;2966.69;2940;2966.69;1031;1027;1031
2024-03-24 15:20;2966.69;2940;2986.7;1031;1027;1032
2024-03-24 15:30;2966.69;2939;2946.76;1031;1027;1030
2024-03-24 15:40;2966.69;2938;2966.69;1031;1027;1031
2024-03-24 15:50;2966.69;2937;2979.35;1031;1026;1031
2024-03-24 16:00;2966.69;2936;2966.69;1031;1026;1031
2024-03-24 16:10;2968.8;2935;2966.69;1031;1026;1031
2024-03-24 16:20;2970.91;2934;2946.76;1031;1026;1030
2024-03-24 16:30;2973.02;2933;2959.38;1031;1026;1030
2024-03-24 16:40;2975.13;2933;2966.69;1031;1026;1031
2024-03-24 16:50;2977.24;2932;2966.69;1031;1026;1031
2024-03-24 17:00;2979.35;2931;2979.35;1031;1026;1031
2024-03-24 17:10;2976.02;2930;2946.76;1031;1025;1030
2024-03-24 17:20;2972.69;2929;2946.76;1031;1025;1030
2024-03-24 17:30;2969.37;2928;2959.38;1031;1025;1030
2024-03-24 17:40;2966.04;2927;2946.76;1030;1025;1030
2024-03-24 17:50;2962.71;2926;2966.69;1030;1025;1031
2024-03-24 18:00;2959.38;2926;2959.38;1030;1025;1030
2024-03-24 18:10;2956.07;2925;2979.35;1030;1025;1031
2024-03-24 18:20;2952.75;2924;2919.71;1030;1025;1028
2024-03-24 18:30;2949.44;2923;2946.76;1030;1024;1030
2024-03-24 18:40;2946.13;2922;2926.92;1029;1024;1029
2024-03-24 18:50;2942.81;2921;2952.08;1029;1024;1029
2024-03-24 19:00;2939.5;2920;2939.5;1029;1024;1029
2024-03-24 19:10;2936.2;2919;2939.5;1029;1024;1029
2024-03-24 19:20;2932.9;2919;2926.92;1029;1024;1029
2024-03-24 19:30;2929.61;2918;2932.25;1028;1024;1028
2024-03-24 19:40;2926.31;2917;2919.71;1028;1024;1028
2024-03-24 19:50;2923.01;2916;2939.5;1028;1023;1029